When you browse on this site, cookies collect data to enhance your experience and personalize the content and advertising you see.
Visit our Privacy Policy to learn more. By continuing to use the site, you agree to this use of cookies and data.
  • în România
  • Lista ţărilor
  • Pe 7 zile
  • Temperatura apei
  • Hartă satelitară
  • Meteo pe hartă
  • Widget-uri
  • user-avatar
    Intrare

    Meteo pe oră la Barinas

    Astăzi, 20 Ianuarie, Duminică

    Timp Temperatura Precipitaţii Vânt Presiune Umiditate
    00:00 +27°C° 0 mm 3 m/s 744 mmHg 41%
    01:00 +27°C° 0 mm 3 m/s 744 mmHg 43%
    02:00 +27°C° 0 mm 2 m/s 744 mmHg 45%
    03:00 +27°C° 0 mm 2 m/s 744 mmHg 47%
    04:00 +27°C° 0 mm 2 m/s 744 mmHg 49%
    05:00 +27°C° 0 mm 2 m/s 744 mmHg 50%
    06:00 +27°C° 0 mm 2 m/s 745 mmHg 52%
    07:00 +27°C° 0 mm 2 m/s 745 mmHg 53%
    08:00 +28°C° 0 mm 2 m/s 745 mmHg 51%
    09:00 +30°C° 0 mm 2 m/s 746 mmHg 49%
    10:00 +31°C° 0 mm 3 m/s 746 mmHg 47%
    11:00 +32°C° 0 mm 2 m/s 745 mmHg 44%
    12:00 +34°C° 0 mm 2 m/s 744 mmHg 41%
    13:00 +35°C° 0 mm 2 m/s 743 mmHg 38%
    14:00 +36°C° 0 mm 2 m/s 743 mmHg 37%
    15:00 +36°C° 0 mm 2 m/s 742 mmHg 36%
    16:00 +36°C° 0 mm 2 m/s 741 mmHg 35%
    17:00 +34°C° 0 mm 2 m/s 742 mmHg 39%
    18:00 +31°C° 0 mm 2 m/s 742 mmHg 42%
    19:00 +29°C° 0 mm 2 m/s 742 mmHg 46%
    20:00 +28°C° 0 mm 2 m/s 743 mmHg 44%
    21:00 +28°C° 0 mm 2 m/s 743 mmHg 43%
    22:00 +28°C° 0 mm 2 m/s 744 mmHg 42%
    23:00 +27°C° 0 mm 2 m/s 744 mmHg 41%

    Mâine, 21 Ianuarie, Luni

    Timp Temperatura Precipitaţii Vânt Presiune Umiditate
    00:00 +27°C° 0 mm 2 m/s 743 mmHg 40%
    01:00 +27°C° 0 mm 2 m/s 743 mmHg 39%
    02:00 +27°C° 0 mm 2 m/s 743 mmHg 41%
    03:00 +27°C° 0 mm 2 m/s 743 mmHg 43%
    04:00 +27°C° 0 mm 2 m/s 743 mmHg 44%
    05:00 +27°C° 0 mm 2 m/s 744 mmHg 47%
    06:00 +27°C° 0 mm 2 m/s 745 mmHg 49%
    07:00 +28°C° 0 mm 2 m/s 745 mmHg 51%
    08:00 +28°C° 0 mm 2 m/s 746 mmHg 50%
    09:00 +29°C° 0 mm 2 m/s 746 mmHg 50%
    10:00 +30°C° 0 mm 2 m/s 747 mmHg 50%
    11:00 +33°C° 0 mm 3 m/s 746 mmHg 46%
    12:00 +35°C° 0 mm 3 m/s 745 mmHg 41%
    13:00 +36°C° 0 mm 3 m/s 744 mmHg 37%
    14:00 +36°C° 0 mm 3 m/s 743 mmHg 37%
    15:00 +37°C° 0 mm 3 m/s 742 mmHg 36%
    16:00 +37°C° 0 mm 3 m/s 742 mmHg 35%
    17:00 +35°C° 0 mm 3 m/s 742 mmHg 40%
    18:00 +31°C° 0 mm 3 m/s 743 mmHg 44%
    19:00 +29°C° 0 mm 2 m/s 743 mmHg 48%
    20:00 +29°C° 0 mm 2 m/s 744 mmHg 48%
    21:00 +28°C° 0 mm 3 m/s 744 mmHg 48%
    22:00 +28°C° 0 mm 3 m/s 745 mmHg 48%
    23:00 +28°C° 0 mm 3 m/s 745 mmHg 47%

    Poimâine, 22 Ianuarie, Marţi

    Timp Temperatura Precipitaţii Vânt Presiune Umiditate
    00:00 +28°C° 0 mm 2 m/s 744 mmHg 47%
    01:00 +27°C° 0 mm 2 m/s 744 mmHg 46%
    02:00 +27°C° 0 mm 2 m/s 744 mmHg 47%
    03:00 +27°C° 0 mm 2 m/s 744 mmHg 48%
    04:00 +26°C° 0 mm 2 m/s 744 mmHg 49%
    05:00 +26°C° 0 mm 2 m/s 744 mmHg 50%
    06:00 +27°C° 0 mm 2 m/s 745 mmHg 52%
    07:00 +27°C° 0 mm 2 m/s 746 mmHg 54%
    08:00 +28°C° 0 mm 2 m/s 746 mmHg 51%
    09:00 +30°C° 0 mm 3 m/s 746 mmHg 49%
    10:00 +31°C° 0 mm 3 m/s 747 mmHg 47%
    11:00 +33°C° 0 mm 3 m/s 746 mmHg 43%
    12:00 +35°C° 0 mm 3 m/s 745 mmHg 39%
    13:00 +36°C° 0 mm 3 m/s 744 mmHg 36%
    14:00 +36°C° 0 mm 3 m/s 743 mmHg 35%
    15:00 +36°C° 0 mm 3 m/s 742 mmHg 34%
    16:00 +36°C° 0 mm 3 m/s 742 mmHg 33%
    17:00 +34°C° 0 mm 3 m/s 742 mmHg 36%
    18:00 +31°C° 0 mm 3 m/s 743 mmHg 40%
    19:00 +29°C° 0 mm 3 m/s 743 mmHg 43%
    20:00 +29°C° 0 mm 3 m/s 744 mmHg 42%
    21:00 +28°C° 0 mm 3 m/s 744 mmHg 41%
    22:00 +28°C° 0 mm 3 m/s 745 mmHg 40%
    23:00 +28°C° 0 mm 3 m/s 745 mmHg 40%

    23 Ianuarie, Miercuri

    Timp Temperatura Precipitaţii Vânt Presiune Umiditate
    00:00 +27°C° 0 mm 3 m/s 745 mmHg 40%
    01:00 +27°C° 0 mm 2 m/s 744 mmHg 41%
    02:00 +27°C° 0 mm 2 m/s 744 mmHg 44%
    03:00 +26°C° 0 mm 2 m/s 744 mmHg 46%
    04:00 +25°C° 0 mm 2 m/s 744 mmHg 49%
    05:00 +26°C° 0 mm 2 m/s 745 mmHg 50%
    06:00 +26°C° 0 mm 2 m/s 746 mmHg 50%
    07:00 +26°C° 0 mm 2 m/s 746 mmHg 51%
    08:00 +28°C° 0 mm 3 m/s 746 mmHg 50%
    09:00 +30°C° 0 mm 3 m/s 747 mmHg 49%
    10:00 +31°C° 0 mm 3 m/s 747 mmHg 47%
    11:00 +33°C° 0 mm 3 m/s 746 mmHg 45%
    12:00 +34°C° 0 mm 3 m/s 745 mmHg 43%
    13:00 +34°C° 0 mm 3 m/s 744 mmHg 40%
    14:00 +34°C° 0 mm 3 m/s 743 mmHg 39%
    15:00 +35°C° 0 mm 3 m/s 742 mmHg 39%
    16:00 +35°C° 0 mm 3 m/s 741 mmHg 38%
    17:00 +33°C° 0 mm 3 m/s 742 mmHg 41%
    18:00 +30°C° 0 mm 3 m/s 742 mmHg 43%
    19:00 +28°C° 0 mm 3 m/s 743 mmHg 46%
    20:00 +28°C° 0 mm 3 m/s 743 mmHg 42%
    21:00 +28°C° 0 mm 3 m/s 744 mmHg 39%
    22:00 +27°C° 0 mm 3 m/s 744 mmHg 35%
    23:00 +27°C° 0 mm 3 m/s 744 mmHg 36%

    24 Ianuarie, Joi

    Timp Temperatura Precipitaţii Vânt Presiune Umiditate
    00:00 +27°C° 0 mm 3 m/s 744 mmHg 38%
    01:00 +27°C° 0 mm 3 m/s 744 mmHg 40%
    02:00 +27°C° 0 mm 3 m/s 743 mmHg 42%
    03:00 +27°C° 0 mm 2 m/s 743 mmHg 45%
    04:00 +27°C° 0 mm 2 m/s 743 mmHg 48%
    05:00 +27°C° 0 mm 2 m/s 744 mmHg 51%
    06:00 +27°C° 0 mm 2 m/s 745 mmHg 54%
    07:00 +27°C° 0 mm 2 m/s 745 mmHg 56%
    08:00 +28°C° 0 mm 3 m/s 745 mmHg 55%
    09:00 +29°C° 0 mm 3 m/s 746 mmHg 54%
    10:00 +30°C° 0 mm 3 m/s 746 mmHg 52%
    11:00 +31°C° 0 mm 3 m/s 745 mmHg 48%
    12:00 +34°C° 0 mm 3 m/s 744 mmHg 43%
    13:00 +35°C° 0 mm 3 m/s 743 mmHg 39%
    14:00 +35°C° 0 mm 3 m/s 742 mmHg 38%
    15:00 +35°C° 0 mm 3 m/s 742 mmHg 38%
    16:00 +36°C° 0 mm 3 m/s 741 mmHg 37%
    17:00 +34°C° 0 mm 3 m/s 741 mmHg 41%
    18:00 +31°C° 0 mm 2 m/s 742 mmHg 45%
    19:00 +29°C° 0 mm 2 m/s 742 mmHg 50%
    20:00 +29°C° 0 mm 2 m/s 743 mmHg 50%
    21:00 +28°C° 0 mm 2 m/s 743 mmHg 51%
    22:00 +27°C° 0 mm 3 m/s 744 mmHg 51%
    23:00 +27°C° 0 mm 3 m/s 743 mmHg 51%

    25 Ianuarie, Vineri

    Timp Temperatura Precipitaţii Vânt Presiune Umiditate
    00:00 +27°C° 0 mm 3 m/s 743 mmHg 52%
    01:00 +27°C° 0 mm 3 m/s 743 mmHg 52%
    02:00 +27°C° 0 mm 2 m/s 743 mmHg 53%
    03:00 +26°C° 0 mm 2 m/s 743 mmHg 54%
    04:00 +26°C° 0 mm 2 m/s 743 mmHg 56%
    05:00 +26°C° 0.1 mm 2 m/s 744 mmHg 58%
    06:00 +26°C° 0.1 mm 2 m/s 745 mmHg 60%
    07:00 +26°C° 0.1 mm 2 m/s 745 mmHg 62%
    08:00 +27°C° 0.1 mm 2 m/s 745 mmHg 62%
    09:00 +27°C° 0.1 mm 3 m/s 746 mmHg 62%
    10:00 +28°C° 0.1 mm 3 m/s 746 mmHg 62%
    11:00 +30°C° 0 mm 3 m/s 745 mmHg 54%
    12:00 +34°C° 0 mm 3 m/s 744 mmHg 45%
    13:00 +36°C° 0 mm 3 m/s 743 mmHg 37%
    14:00 +37°C° 0 mm 3 m/s 742 mmHg 36%
    15:00 +37°C° 0 mm 3 m/s 741 mmHg 35%
    16:00 +37°C° 0 mm 3 m/s 741 mmHg 34%
    17:00 +35°C° 0 mm 2 m/s 741 mmHg 38%
    18:00 +32°C° 0 mm 2 m/s 741 mmHg 43%
    19:00 +30°C° 0 mm 2 m/s 742 mmHg 47%
    20:00 +30°C° 0 mm 2 m/s 742 mmHg 49%
    21:00 +29°C° 0 mm 2 m/s 743 mmHg 51%
    22:00 +28°C° 0 mm 2 m/s 743 mmHg 53%
    23:00 +28°C° 0 mm 2 m/s 743 mmHg 53%
    Arată mai mult